H1 CPF  2 gal 2023 07 10 08 191 1 galileo213
H2 1606903 7213 41861 2023 07 10 00 14 42 2023 07 15 00 14 42 900 1 1 0 0 0 1
H9                                                                                
10 0 60135    882.000000  0     -19383242.148       8522272.189     -20672897.057 
10 0 60135   1782.000000  0     -21106164.601       8002047.078     -19136960.612 
10 0 60135   2682.000000  0     -22715209.645       7635540.332     -17362831.688 
10 0 60135   3582.000000  0     -24177978.131       7408644.174     -15372595.073 
10 0 60135   4482.000000  0     -25465461.657       7302076.925     -13191026.404 
10 0 60135   5382.000000  0     -26552916.387       7292043.496     -10845283.083 
10 0 60135   6282.000000  0     -27420605.700       7351038.967      -8364565.382 
10 0 60135   7182.000000  0     -28054388.409       7448769.895      -5779751.965 
10 0 60135   8082.000000  0     -28446134.148       7553164.285      -3123014.451 
10 0 60135   8982.000000  0     -28593952.952       7631438.373       -427415.870 
10 0 60135   9882.000000  0     -28502231.898       7651186.569       2273501.884 
10 0 60135  10782.000000  0     -28181477.761       7581460.219       4946136.388 
10 0 60135  11682.000000  0     -27647970.713       7393801.182       7557243.514 
10 0 60135  12582.000000  0     -26923240.071       7063197.679      10074351.440 
10 0 60135  13482.000000  0     -26033378.639       6568932.339      12466164.656 
10 0 60135  14382.000000  0     -25008217.283       5895295.774      14702952.893 
10 0 60135  15282.000000  0     -23880385.700       5032143.278      16756920.132 
10 0 60135  16182.000000  0     -22684288.910       3975277.164      18602549.147 
10 0 60135  17082.000000  0     -21455031.574       2726642.787      20216917.347 
10 0 60135  17982.000000  0     -20227323.840       1294332.068      21579980.090 
10 0 60135  18882.000000  0     -19034402.939       -307605.556      22674818.055 
10 0 60135  19782.000000  0     -17907004.220      -2059538.898      23487845.723 
10 0 60135  20682.000000  0     -16872413.715      -3936805.768      24008978.511 
10 0 60135  21582.000000  0     -15953631.758      -5910421.574      24231756.597 
10 0 60135  22482.000000  0     -15168673.662      -7947923.718      24153424.015 
10 0 60135  23382.000000  0     -14530029.211     -10014325.542      23774962.106 
10 0 60135  24282.000000  0     -14044297.725     -12073150.160      23101076.968 
10 0 60135  25182.000000  0     -13712010.001     -14087512.066      22140141.082 
10 0 60135  26082.000000  0     -13527642.635     -16021212.890      20904089.802 
10 0 60135  26982.000000  0     -13479824.197     -17839817.256      19408273.964 
10 0 60135  27882.000000  0     -13551726.804     -19511675.279      17671270.351 
10 0 60135  28782.000000  0     -13721630.829     -21008859.875      15714652.275 
10 0 60135  29682.000000  0     -13963645.088     -22307989.710      13562723.014 
10 0 60135  30582.000000  0     -14248559.976     -23390912.120      11242215.296 
10 0 60135  31482.000000  0     -14544806.862     -24245224.684       8781960.465 
10 0 60135  32382.000000  0     -14819493.695     -24864619.158       6212531.341 
10 0 60135  33282.000000  0     -15039484.349     -25249036.984       3565863.145 
10 0 60135  34182.000000  0     -15172487.858     -25404631.495        874857.150 
10 0 60135  35082.000000  0     -15188123.307     -25343537.970      -1827028.034 
10 0 60135  35982.000000  0     -15058926.907     -25083458.714      -4506192.445 
10 0 60135  36882.000000  0     -14761269.551     -24647076.147      -7129312.840 
10 0 60135  37782.000000  0     -14276155.918     -24061312.297      -9663757.592 
10 0 60135  38682.000000  0     -13589879.923     -23356457.922     -12077993.200 
10 0 60135  39582.000000  0     -12694515.773     -22565198.581     -14341977.304 
10 0 60135  40482.000000  0     -11588229.061     -21721568.250     -16427533.238 
10 0 60135  41382.000000  0     -10275397.975     -20859863.317     -18308701.427 
10 0 60135  42282.000000  0      -8766540.651     -20013551.085     -19962063.198 
10 0 60135  43182.000000  0      -7078050.778     -19214207.053     -21367032.954 
10 0 60135  44082.000000  0      -5231749.605     -18490514.351     -22506115.055 
10 0 60135  44982.000000  0      -3254268.216     -17867356.739     -23365122.195 
10 0 60135  45882.000000  0      -1176279.301     -17365033.666     -23933352.571 
10 0 60135  46782.000000  0        968397.662     -16998622.011     -24203723.619 
10 0 60135  47682.000000  0       3143789.910     -16777504.551     -24172860.666 
10 0 60135  48582.000000  0       5312832.603     -16705079.960     -23841139.397 
10 0 60135  49482.000000  0       7438464.620     -16778663.446     -23212681.577 
10 0 60135  50382.000000  0       9484724.743     -16989581.144     -22295304.078 
10 0 60135  51282.000000  0      11417814.002     -17323455.313     -21100421.818 
10 0 60135  52182.000000  0      13207091.000     -17760671.391     -19642905.778 
10 0 60135  53082.000000  0      14825969.144     -18277012.233     -17940897.852 
10 0 60135  53982.000000  0      16252687.741     -18844439.616     -16015584.788 
10 0 60135  54882.000000  0      17470932.889     -19431998.447     -13890934.036 
10 0 60135  55782.000000  0      18470288.789     -20006815.238     -11593394.766 
10 0 60135  56682.000000  0      19246505.422     -20535159.446      -9151567.820 
10 0 60135  57582.000000  0      19801574.300     -20983534.276      -6595848.717 
10 0 60135  58482.000000  0      20143610.043     -21319762.612      -3958048.223 
10 0 60135  59382.000000  0      20286541.628     -21514033.897      -1270995.275 
10 0 60135  60282.000000  0      20249623.150     -21539879.004       1431872.697 
10 0 60135  61182.000000  0      20056779.605     -21375042.420       4116926.891 
10 0 60135  62082.000000  0      19735808.399     -21002224.303       6750766.369 
10 0 60135  62982.000000  0      19317461.786     -20409669.085       9300634.149 
10 0 60135  63882.000000  0      18834439.203     -19591582.138      11734824.884 
10 0 60135  64782.000000  0      18320321.220     -18548361.424      14023079.026 
10 0 60135  65682.000000  0      17808478.669     -17286636.894      16136958.557 
10 0 60135  66582.000000  0      17330991.217     -15819116.408      18050199.635 
10 0 60135  67482.000000  0      16917609.330     -14164243.045      19739037.824 
10 0 60135  68382.000000  0      16594792.151     -12345674.524      21182501.944 
10 0 60135  69282.000000  0      16384851.416     -10391601.041      22362673.001 
10 0 60135  70182.000000  0      16305228.151      -8333922.819      23264905.095 
10 0 60135  71082.000000  0      16367924.743      -6207313.022      23878005.691 
10 0 60135  71982.000000  0      16579110.074      -4048195.240      24194373.143 
10 0 60135  72882.000000  0      16938910.030      -1893667.359      24210089.866 
10 0 60135  73782.000000  0      17441389.873        219594.731      23924970.099 
10 0 60135  74682.000000  0      18074729.025       2256419.494      23342561.712 
10 0 60135  75582.000000  0      18821582.787       4184174.592      22470102.079 
10 0 60135  76482.000000  0      19659619.726       5973722.040      21318428.536 
10 0 60135  77382.000000  0      20562217.979       7600264.048      19901844.513 
10 0 60135  78282.000000  0      21499298.770       9044053.259      18237942.919 
10 0 60135  79182.000000  0      22438271.146      10290945.332      16347388.887 
10 0 60135  80082.000000  0      23345058.464      11332776.709      14253664.467 
10 0 60135  80982.000000  0      24185174.569      12167555.811      11982778.327 
10 0 60135  81882.000000  0      24924816.030      12799461.765       9562943.953 
10 0 60135  82782.000000  0      25531936.250      13238650.709       7024230.260 
10 0 60135  83682.000000  0      25977267.808      13500875.770       4398188.880 
10 0 60135  84582.000000  0      26235260.954      13606932.641       1717462.683 
10 0 60135  85482.000000  0      26284908.791      13581948.127       -984619.596 
10 0 60135  86382.000000  0      26110433.161      13454534.008      -3674457.613 
10 0 60136    882.000000  0      25701809.637      13255832.768      -6318597.374 
10 0 60136   1782.000000  0      25055115.026      13018485.184      -8884147.655 
10 0 60136   2682.000000  0      24172686.344      12775552.227     -11339189.660 
10 0 60136   3582.000000  0      23063086.147      12559425.174     -13653174.756 
10 0 60136   4482.000000  0      21740875.184      12400758.246     -15797305.284 
10 0 60136   5382.000000  0      20226199.358      12327457.338     -17744893.656 
10 0 60136   6282.000000  0      18544203.844      12363756.714     -19471695.215 
10 0 60136   7182.000000  0      16724292.613      12529412.729     -20956210.695 
10 0 60136   8082.000000  0      14799256.480      12839039.995     -22179954.490 
10 0 60136   8982.000000  0      12804296.888      13301610.933     -23127685.384 
10 0 60136   9882.000000  0      10775975.939      13920134.516     -23787596.861 
10 0 60136  10782.000000  0       8751125.459      14691524.397     -24151464.636 
10 0 60136  11682.000000  0       6765749.189      15606660.654     -24214749.554 
10 0 60136  12582.000000  0       4853952.385      16650643.332     -23976654.594 
10 0 60136  13482.000000  0       3046932.271      17803229.931     -23440135.234 
10 0 60136  14382.000000  0       1372060.861      19039443.209     -22611863.051 
10 0 60136  15282.000000  0       -147911.210      20330330.334     -21502142.965 
10 0 60136  16182.000000  0      -1495504.994      21643849.655     -20124785.139 
10 0 60136  17082.000000  0      -2658997.407      22945857.321     -18496933.091 
10 0 60136  17982.000000  0      -3632724.198      24201162.872     -16638850.132 
10 0 60136  18882.000000  0      -4417192.324      25374620.684     -14573666.765 
99